Greenville Junction, ME

7:34 PM EDT on August 28, 2016 (GMT -0400)
Greenville

Weather History for KGNR - June, 2013

Change the Weather History Date:

Saturday, June 15, 2013

  Actual Average (KMLT) Record (KMLT)
Temperature  
Mean Temperature 58 °F 63 °F  
Max Temperature 69 °F 73 °F 93 °F (1956)
Min Temperature 48 °F 52 °F 35 °F (1946)
Degree Days  
Heating Degree Days 7 4  
Month to date heating degree days 84  
Since 1 June heating degree days 84  
Since 1 July heating degree days 8374  
Cooling Degree Days 0 1  
Month to date cooling degree days 15  
Year to date cooling degree days 21  
Since 1 June cooling degree days 15  
Growing Degree Days 8 (Base 50)    
Moisture  
Dew Point 41 °F    
Average Humidity 54    
Maximum Humidity 83    
Minimum Humidity 35    
Precipitation  
Precipitation 0.02 in 0.15 in 3.37 in (1942)
Month to date precipitation 2.02  
Year to date precipitation 17.09  
Sea Level Pressure  
Sea Level Pressure 29.80 in    
Wind  
Wind Speed 7 mph (NW)    
Max Wind Speed 13 mph    
Max Gust Speed 23 mph    
T = Trace of Precipitation, MM = Missing Value Source: NWS Daily Summary

Daily Weather History Graph

Daily Weather History Graph

Search for Another Location

Airport or City:

Trip Planner

Search our weather history database for the weather conditions in past years. The results will help you decide how hot, cold, wet, or windy it might be!

Date:

Astronomy

Jun. 15, 2013 Rise Set
Actual Time 4:49 AM EDT 8:28 PM EDT
Civil Twilight 4:11 AM EDT 9:06 PM EDT
Nautical Twilight 3:20 AM EDT 9:57 PM EDT
Astronomical Twilight 2:12 AM EDT 11:05 PM EDT
Moon 11:38 AM EDT (6/15) No Moon Set
Length of Visible Light 16h 55m
Length of Day
15h 39m
Waxing Crescent, 39% of the Moon is Illuminated
Jun 15
Waxing Crescent
Jun 16
First Quarter
Jun 23
Full
Jun 30
Last Quarter
Jul 8
New

Hourly Weather History & Observations

Time (EDT) Temp. Dew Point Humidity Pressure Visibility Wind Dir Wind Speed Gust Speed Precip Events Conditions
12:56 AM 54.0 °F 37.9 °F 55% 29.74 in - NNW 10.4 mph - N/A   Unknown
1:56 AM 52.0 °F 37.9 °F 59% 29.75 in - NW 5.8 mph - N/A   Unknown
2:56 AM 50.0 °F 39.0 °F 66% 29.77 in - NW 3.5 mph - N/A   Unknown
3:56 AM 50.0 °F 39.0 °F 66% 29.78 in - NW 5.8 mph - N/A   Unknown
4:56 AM 48.9 °F 39.9 °F 71% 29.78 in - Variable 3.5 mph - N/A   Unknown
5:56 AM 51.1 °F 37.9 °F 61% 29.81 in - NW 5.8 mph - N/A   Unknown
6:56 AM 54.0 °F 39.0 °F 57% 29.82 in - Calm Calm - N/A   Unknown
7:56 AM 55.9 °F 41.0 °F 57% 29.82 in - NW 11.5 mph 18.4 mph N/A   Unknown
8:56 AM 59.0 °F 41.0 °F 51% 29.83 in - NW 10.4 mph 23.0 mph N/A   Unknown
9:56 AM 62.1 °F 39.0 °F 43% 29.83 in - NNW 12.7 mph 23.0 mph N/A   Unknown
10:56 AM 64.0 °F 41.0 °F 43% 29.82 in - NW 10.4 mph 20.7 mph N/A   Unknown
11:56 AM 64.9 °F 41.0 °F 42% 29.83 in - NNW 12.7 mph 20.7 mph N/A   Unknown
12:56 PM 66.9 °F 41.0 °F 39% 29.81 in - NW 10.4 mph 17.3 mph N/A   Unknown
1:56 PM 68.0 °F 39.0 °F 35% 29.80 in - NW 6.9 mph 18.4 mph N/A   Unknown
2:56 PM 63.0 °F 41.0 °F 45% 29.81 in - NNW 12.7 mph 19.6 mph N/A   Unknown
3:56 PM 66.9 °F 39.0 °F 36% 29.79 in - Variable 4.6 mph - N/A   Unknown
4:56 PM 66.9 °F 41.0 °F 39% 29.79 in - Variable 5.8 mph - N/A   Unknown
5:56 PM 66.0 °F 42.1 °F 42% 29.78 in - Variable 3.5 mph - N/A   Unknown
6:56 PM 64.0 °F 41.0 °F 43% 29.80 in - Variable 3.5 mph - N/A   Unknown
7:56 PM 63.0 °F 42.1 °F 46% 29.81 in - NNW 4.6 mph - N/A   Unknown
8:56 PM 59.0 °F 44.1 °F 58% 29.84 in - Variable 4.6 mph - N/A   Unknown
9:56 PM 54.0 °F 46.0 °F 75% 29.83 in - Calm Calm - 0.01 in   Unknown
10:56 PM 53.1 °F 48.0 °F 83% 29.83 in - Calm Calm - 0.01 in   Unknown
11:56 PM 52.0 °F 46.0 °F 80% 29.83 in - Calm Calm - N/A   Unknown